Olivehurst, CA

10:03 AM PST on February 23, 2017 (GMT -0800)
Yuba County

Weather History for KMYV - November, 2012

Change the Weather History Date:

Sunday, November 18, 2012

  Actual Average Record
Temperature  
Mean Temperature 53 °F -  
Max Temperature 60 °F 63 °F 78 °F (1989)
Min Temperature 46 °F 43 °F 28 °F (2000)
Degree Days  
Heating Degree Days 12    
Growing Degree Days 3 (Base 50)    
Moisture  
Dew Point 48 °F    
Average Humidity 82    
Maximum Humidity 100    
Minimum Humidity 51    
Precipitation  
Precipitation 0.01 in - - ()
Sea Level Pressure  
Sea Level Pressure 30.10 in    
Wind  
Wind Speed 9 mph (SSE)    
Max Wind Speed 13 mph    
Max Gust Speed -    
Visibility 10 miles    
Events      
Averages and records for this station are not official NWS values.
T = Trace of Precipitation, MM = Missing Value Source: NWS Daily Summary

Daily Weather History Graph

Daily Weather History Graph

Search for Another Location

Airport or City:

Trip Planner

Search our weather history database for the weather conditions in past years. The results will help you decide how hot, cold, wet, or windy it might be!

Date:

Astronomy

Nov. 18, 2012 Rise Set
Actual Time 6:53 AM PST 4:49 PM PST
Civil Twilight 6:24 AM PST 5:18 PM PST
Nautical Twilight 5:52 AM PST 5:50 PM PST
Astronomical Twilight 5:20 AM PST 6:22 PM PST
Moon 11:24 AM PST (11/18) 10:14 PM PST (11/18)
Length of Visible Light 10h 53m
Length of Day
9h 56m
Waxing Crescent, 31% of the Moon is Illuminated
Nov 18
Waxing Crescent
Nov 20
First Quarter
Nov 28
Full
Dec 6
Last Quarter
Dec 13
New

Hourly Weather History & Observations

Time (PST) Temp. Dew Point Humidity Pressure Visibility Wind Dir Wind Speed Gust Speed Precip Events Conditions
12:07 AM 55.4 °F 53.6 °F 94% 29.97 in 10.0 mi South 12.7 mph - 0.00 in   Overcast
12:53 AM 55.0 °F 54.0 °F 96% 29.99 in 10.0 mi South 11.5 mph - 0.00 in   Overcast
1:53 AM 55.0 °F 54.0 °F 96% 29.99 in 10.0 mi South 11.5 mph - N/A   Overcast
2:05 AM 53.6 °F 53.6 °F 100% 29.99 in 10.0 mi SSE 10.4 mph - N/A   Mostly Cloudy
2:53 AM 54.0 °F 53.1 °F 97% 30.00 in 10.0 mi SSE 10.4 mph - N/A   Overcast
3:53 AM 52.0 °F 51.1 °F 97% 30.01 in 10.0 mi SSE 12.7 mph - N/A   Clear
4:53 AM 50.0 °F 48.9 °F 96% 30.04 in 10.0 mi South 8.1 mph - N/A   Clear
5:53 AM 46.9 °F 46.9 °F 100% 30.05 in 10.0 mi SSW 5.8 mph - 0.01 in   Clear
6:53 AM 46.9 °F 46.9 °F 100% 30.07 in 10.0 mi SE 4.6 mph - N/A   Clear
7:53 AM 48.0 °F 46.0 °F 93% 30.10 in 10.0 mi SSE 4.6 mph - N/A   Clear
8:53 AM 52.0 °F 48.0 °F 86% 30.11 in 10.0 mi SSE 9.2 mph - N/A   Clear
9:53 AM 55.0 °F 46.0 °F 72% 30.13 in 10.0 mi SE 9.2 mph - N/A   Clear
10:53 AM 55.9 °F 45.0 °F 67% 30.14 in 10.0 mi SSE 9.2 mph - N/A   Clear
12:53 PM 59.0 °F 42.1 °F 53% 30.12 in 10.0 mi SSE 6.9 mph - N/A   Clear
1:53 PM 60.1 °F 42.1 °F 51% 30.13 in 10.0 mi South 8.1 mph - N/A   Clear
2:53 PM 59.0 °F 43.0 °F 55% 30.12 in 10.0 mi South 8.1 mph - N/A   Clear
3:53 PM 57.0 °F 46.0 °F 67% 30.14 in 10.0 mi SSE 4.6 mph - N/A   Clear
4:53 PM 55.9 °F 46.9 °F 72% 30.15 in 10.0 mi SE 5.8 mph - N/A   Clear
5:53 PM 55.9 °F 46.0 °F 69% 30.15 in 10.0 mi SSE 6.9 mph - N/A   Overcast
6:53 PM 55.0 °F 46.0 °F 72% 30.16 in 10.0 mi SE 5.8 mph - N/A   Overcast
7:53 PM 55.0 °F 46.9 °F 74% 30.17 in 10.0 mi SE 5.8 mph - N/A   Overcast
8:53 PM 54.0 °F 48.9 °F 83% 30.18 in 10.0 mi ESE 6.9 mph - N/A   Overcast
9:53 PM 54.0 °F 48.9 °F 83% 30.19 in 10.0 mi ESE 3.5 mph - N/A   Overcast
10:53 PM 53.1 °F 48.9 °F 86% 30.20 in 10.0 mi Calm Calm - N/A   Overcast
11:53 PM 54.0 °F 48.0 °F 80% 30.19 in 10.0 mi Calm Calm - N/A   Overcast